Regional Weather Roundup
Issued by NWS Binghamton, NY

Home | Current Version | Previous Version | Text Only | Print | Product List | Glossary On
Versions: 1 2 3 4 5 6 7 8 9 10 11 12 13 14 15 16 17 18 19 20 21 22 23 24 25 26 27 28 29 30 31 32 33 34 35 36 37 38 39 40 41 42 43 44 45 46 47 48 49 50
000
ASUS41 KBGM 271710
RWRBGM
RWRBGM
BINGHAMTON REGIONAL WEATHER ROUNDUP
NATIONAL WEATHER SERVICE BINGHAMTON NY
100 PM EDT FRI MAR 27 2015

Note: "fair" indicates few or no clouds below 12,000 feet with no
significant weather and/or obstructions to visibility.

* = Station(s) that does not report precipitation, such as rain,
snow, etc, also no thunder or fog.

!NYZ009-015>018-022>025-036-037-044>046-055>057-062-271800
...CENTRAL NEW YORK...

CITY           SKY/WX    TMP DP  RH WIND       PRES   REMARKS
BINGHAMTON     PTSUNNY   34  25  69 W10       29.75R WCI  26
CORTLAND       CLOUDY    34  30  86 NW6       29.80S WCI  29
DANSVILLE      CLOUDY    36  25  64 NW10      29.83R WCI  28
ELMIRA         CLOUDY    36  25  64 NW8       29.80R WCI  30
ITHACA         CLOUDY    35  27  73 NW8       29.80R WCI  28
MONTICELLO     CLOUDY    36  27  69 NW9       29.75R WCI  29
NORWICH        CLOUDY    36  27  69 N8        29.78S WCI  29
ONEONTA        CLOUDY    32  27  80 NW9       29.74R WCI  24
PENN YAN       CLOUDY    35  25  66 W7        29.81R WCI  29
ROME           CLOUDY    35  31  85 W12       29.80S WCI  27
SIDNEY         CLOUDY    37  30  75 N6        29.78S WCI  33
SYRACUSE       PTSUNNY   37  27  67 NW14      29.81R WCI  28
$$

!PAZ038>040-043-044-047-048-072-271800
...NORTHEAST PENNSYLVANIA...

CITY           SKY/WX    TMP DP  RH WIND       PRES   REMARKS
HAZLETON       CLOUDY    37  25  60 NW7       29.77S WCI  32
SCRANTON       CLOUDY    39  25  57 N14G20    29.76F WCI  31
TOWANDA*       CLOUDY    39  23  52 N5        29.80F
$$
&&
KEY
WCI = WIND CHILL INDEX
VSB = VISIBILITY
HX  = HEAT INDEX
$$



USA.gov is the U.S. government's official web portal to all federal, state and local government web resources and services.